Regional Weather Roundup
Issued by NWS

Home | Current Version | Previous Version | Text Only | Print | Product List | Glossary On
Versions: 1 2 3 4 5 6 7 8 9 10 11 12 13 14 15 16 17 18 19 20 21 22 23 24 25 26 27 28 29 30 31 32 33 34 35 36 37 38 39 40 41 42 43 44 45 46 47 48 49 50
000
ASCA44 KEWX 221520
RWRMX

LATIN AMERICA AND CARIBBEAN REGIONAL WEATHER ROUNDUP
NATIONAL WEATHER SERVICE AUSTIN/SAN ANTONIO TX
1000 AM CDT THU JUN 22 2017

NOTE: "FAIR" INDICATED FEW OR NO CLOUDS BELOW 12,000 FEET WITH NO
SIGNIFICANT WEATHER AND/OR OBSTRUCTIONS TO VISIBILITY.

BAJA CALIFORNIA

CITY           SKY/WX    TMP DP  RH WIND       PRES   REMARKS
LORETO         SUNNY     82  73  74 SE9       29.74R
LA PAZ         MOSUNNY   72  59  64 S9        29.85S
MEXICALI       SUNNY     82  70  65 E14       29.68R
S.J. DEL CABO  SUNNY     75  61  60 CALM      29.81F
TIJUANA        CLOUDY    61  61 100 CALM      29.84R FOG

NORTHWESTERN MEXICO

CITY           SKY/WX    TMP DP  RH WIND       PRES   REMARKS
CULIACAN       SUNNY     82  72  69 SE9       29.85S
DURANGO        SUNNY     72  52  49 CALM      30.18R
GUAYMAS        MOSUNNY   84  77  79 CALM      29.77R HX  94
HERMOSILLO     CLOUDY    88  66  48 E12       29.84R HX  90
CD. JUAREZ     SUNNY     88  50  27 SW9       29.94R
LOS MOCHIS     MOSUNNY   82  68  61 S20       29.82
OBREGON        SUNNY     82  64  54 SE9       29.81R

NORTHEASTERN MEXICO

CITY           SKY/WX    TMP DP  RH WIND       PRES   REMARKS
CHIHUAHUA      MOSUNNY   86  43  22 S5        30.00F
MATAMOROS      SUNNY     91  72  52 S18       29.71S HX  98
MONCLOVA       SUNNY     90  55  31 CALM      29.81R
MONTERREY      SUNNY     90  63  40 N5        29.76R HX  90
NUEVO LAREDO   SUNNY     86  70  58 E6        29.73R HX  90
PIEDRAS NEGRAS SUNNY     86  61  42 E6        29.77S
REYNOSA        SUNNY     90  61  37 SE9G21    29.70S
SALTILLO       SUNNY     84  55  37 SW9       30.07S
TORREON        SUNNY     84  50  30 NE5       29.95R
CD. VICTORIA   SUNNY     91  61  35 S14       29.75S HX  91

WESTERN MEXICO

CITY           SKY/WX    TMP DP  RH WIND       PRES   REMARKS
AGUASCALIENTES SUNNY     70  55  60 S7        30.21R
COLIMA         MOSUNNY   79  70  73 CALM      30.00R
DEL BAJIO      PTSUNNY   72  59  64 NW7       30.24R
GUADALAJARA    MOSUNNY   72  57  60 W3        30.14S
MANZANILLO     MOSUNNY   88  73  62 CALM      29.82R HX  96
MAZATLAN       MOSUNNY   82  73  74 S2        29.87R
P. VALLARTA    SUNNY     82  77  83 CALM      29.86S HX  91
URUAPAN        SUNNY     68  61  77 CALM      30.14R
ZACATECAS      SUNNY     70  52  52 CALM      30.23R

CENTRAL MEXICO

CITY           SKY/WX    TMP DP  RH WIND       PRES   REMARKS
CUERNAVACA     SUNNY     73  63  68 CALM      30.08R
MEXICO CITY    SUNNY     68  50  52 E6        30.27S
MORELIA        MOSUNNY   70  59  68 W3        30.19R HAZE
POZA RICA      MOSUNNY   88  75  66 MISG      29.84R HX  97
PUEBLA         SUNNY     64  54  68 N3        30.28R
QUERETARO      SUNNY     70  55  60 NW6       30.24S
S. LUIS POTOSI SUNNY     72  50  46 CALM      30.16S
TAMPICO        MOSUNNY   84  77  79 E6        29.78S HX  94
TOLUCA         CLOUDY    59  52  77 NW5       30.34R FOG

SOUTHERN MEXICO

CITY           SKY/WX    TMP DP  RH WIND       PRES   REMARKS
ACAPULCO       MOSUNNY   84  75  74 CALM      29.83R HX  92
B. DE HUATULCO CLOUDY   N/A N/A N/A CALM      29.93R
OAXACA         MOSUNNY   66  55  68 N5        30.17S
P. ESCONDIDO   PTSUNNY   79  73  83 E9        29.93R
VERACRUZ       PTSUNNY   82  75  78 S7        29.82R
ZIHUATANEJO    SUNNY     84  75  74 CALM      29.84R HX  92

YUCATAN PENINSULA

CITY           SKY/WX    TMP DP  RH WIND       PRES   REMARKS
CAMPECHE       PTSUNNY   84  79  84 E6        29.84R HX  96
CANCUN         MOSUNNY   86  77  74 SE21      29.95R HX  97
CHETUMAL       PTSUNNY   82  75  78 SE9       29.89S
CD. DEL CARMEN MOSUNNY  N/A N/A N/A SE14      29.83R
COZUMEL        MOSUNNY   86  75  70 S9        29.92R HX  95
MERIDA         CLOUDY    82  79  89 SE10      29.90R HX  93
MINATITLAN     PTSUNNY   84  77  79 CALM      29.81R HX  94
TAPACHULA      PTSUNNY   84  75  74 SE9       29.85R HX  92
TUX. GUTIERREZ PTSUNNY   75  70  83 CALM      29.94R
VILLAHERMOSA   MOSUNNY   84  77  79 E8        29.84S HX  94

CENTRAL AMERICA

CITY           SKY/WX    TMP DP  RH WIND       PRES   REMARKS
BELIZE CITY    MOSUNNY   84  77  79 SE7       29.88R HX  94
MANAGUA        MOSUNNY   84  75  74 SE12      29.86R HX  92

CARIBBEAN

CITY           SKY/WX    TMP DP  RH WIND       PRES   REMARKS
ARUBA          MOSUNNY   90  77  66 E22G33    29.89S HX 102
CURACAO        MOSUNNY   88  75  66 E17       29.94S HX  97
KINGSTON       PTSUNNY   86  73  66 SE20      29.94S HX  93
NASSAU         MOSUNNY   88  73  62 E14       30.09S HX  96
SAN JUAN       MOSUNNY   86  73  66 E16G24    30.04F HX  93
SANTO DOMINGO  PTSUNNY   84  75  74 NE8       30.00S HX  92
ST. CROIX      MOSUNNY   88  73  62 NE18G25   30.02F HX  96
ST. KITTS      MOSUNNY   82  73  74 NE15      30.00S
ST. MAARTEN    MOSUNNY   86  72  62 E16       30.00F HX  92
ST. THOMAS     MOSUNNY   91  72  52 E14G22    30.02F HX  98

$$




USA.gov is the U.S. government's official web portal to all federal, state and local government web resources and services.